Regional Weather Roundup
Issued by NWS Cleveland, OH

Home | Current Version | Previous Version | Graphics & Text | Print | Product List | Glossary On
Versions: 1 2 3 4 5 6 7 8 9 10 11 12 13 14 15 16 17 18 19 20 21 22 23 24 25 26 27 28 29 30 31 32 33 34 35 36 37 38 39 40 41 42 43 44 45 46 47 48 49 50
000
ASUS41 KCLE 230500
RWRCLE
OHIO REGIONAL WEATHER ROUNDUP
NATIONAL WEATHER SERVICE WILMINGTON, OH
100 AM EDT SUN JUL 23 2017

NOTE: "FAIR" INDICATES FEW OR NO CLOUDS BELOW 12,000 FEET WITH NO
SIGNIFICANT WEATHER AND/OR OBSTRUCTIONS TO VISIBILITY.

OHZ001>008-015>018-024>027-034-035-043-044-230600-
   NORTHWEST OHIO

CITY           SKY/WX    TMP DP  RH WIND       PRES   REMARKS
DEFIANCE       FAIR     N/A N/A N/A CALM      29.81S
FINDLAY        FAIR      74  69  85 NW5       29.80S
TOLEDO EXPRESS FAIR      72  70  93 NW3       29.79F
TOLEDO EXEC    FAIR      74  70  87 NW6       29.80S
LIMA           FAIR      73  71  93 W6        29.83S
$$

OHZ009>014-019>023-028>033-038-089-230600-
   NORTHEAST OHIO

CITY           SKY/WX    TMP DP  RH WIND       PRES   REMARKS
CLE-HOPKINS    FAIR      76  71  85 SW5       29.80R
CLE-LAKEFRONT  FAIR      77  73  87 W12       29.76S
CUY CO. ARPT   NOT AVBL
LORAIN-ELYRIA  FAIR      73  67  81 NW3       29.79S
ASHTABULA      MOCLDY    72  72 100 S5        29.78S
AKRON-CANTON   FAIR      75  70  84 W6        29.81S
WOOSTER        NOT AVBL
MANSFIELD      FAIR      73  71  93 SW5       29.83R
YOUNGSTOWN     FAIR      72  71  97 S6        29.79S
$$

OHZ042-051>053-060>062-070>072-077>081-230600-
  SOUTHWEST OHIO

CITY           SKY/WX    TMP DP  RH WIND       PRES   REMARKS
CINC-COVINGTON CLOUDY    72  72 100 SW3       29.84F
CINC-LUNKEN    TSTM      73  73 100 SE3       29.84F
HAMILTON       FAIR      76  76 100 S3        29.84S
DAYTON         NOT AVBL
WRIGHT-PAT AFB MOCLDY    77  75  95 CALM      29.84R
DAYTON GENERAL MOCLDY    78  72  81 SW5       29.84R THUNDER
WILMINGTON     CLOUDY    77  75  93 SW13      29.84S
$$

OHZ036-037-039>041-045>050-054>059-063>069-073>076-082>088-230600-
  CENTRAL AND SOUTHEAST OHIO

CITY           SKY/WX    TMP DP  RH WIND       PRES   REMARKS
COLUMBUS       MOCLDY    74  72  93 CALM      29.82R
OSU AIRPORT    FAIR      72  72 100 CALM      29.82S
BOLTON FIELD   NOT AVBL
RICKENBACK AFB NOT AVBL
NEWARK         FAIR      71  70  96 CALM      29.82F
MARION         FAIR      73  69  87 SW6       29.82S
LANCASTER      FAIR      69  69 100 CALM      29.83S
ZANESVILLE     FOG       72  70  93 SW5       29.83R VSB 3/4
NEW PHILLY     FAIR      73  73 100 S3        29.82S FOG
$$




USA.gov is the U.S. government's official web portal to all federal, state and local government web resources and services.